Time,TemperatureF,DewpointF,PressureIn,WindDirection,WindDirectionDegrees,WindSpeedMPH,WindSpeedGustMPH,Humidity,HourlyPrecipIn,Conditions,Clouds,dailyrainin,SoftwareType,DateUTC
2013-05-02 00:01:00,60.6,56.1,29.73,SE,135,0.0,3.1,85,0.00,,,0.00,WUHU21623XXSP,2013-05-02 04:01:00,
2013-05-02 00:06:00,60.6,56.1,29.73,SE,135,0.0,0.9,85,0.00,,,0.00,WUHU21623XXSP,2013-05-02 04:06:00,
2013-05-02 00:11:00,60.6,56.1,29.73,SE,135,0.0,0.9,85,0.00,,,0.00,WUHU21623XXSP,2013-05-02 04:11:00,
2013-05-02 00:16:00,60.4,55.9,29.73,ESE,112,0.0,0.0,85,0.00,,,0.00,WUHU21623XXSP,2013-05-02 04:16:00,
2013-05-02 00:21:00,60.4,55.9,29.73,ESE,112,0.0,0.0,85,0.00,,,0.00,WUHU21623XXSP,2013-05-02 04:21:00,
2013-05-02 00:26:00,60.4,55.9,29.73,ENE,67,0.0,4.0,85,0.00,,,0.00,WUHU21623XXSP,2013-05-02 04:26:00,
2013-05-02 00:31:00,60.4,55.9,29.73,ENE,67,0.0,4.0,85,0.00,,,0.00,WUHU21623XXSP,2013-05-02 04:31:00,
2013-05-02 00:36:00,60.4,55.9,29.73,South,180,1.6,1.6,85,0.00,,,0.00,WUHU21623XXSP,2013-05-02 04:36:00,
2013-05-02 00:41:00,60.1,55.6,29.73,SW,225,0.0,1.6,85,0.00,,,0.00,WUHU21623XXSP,2013-05-02 04:41:00,
2013-05-02 00:46:00,60.1,55.6,29.72,SSE,157,0.0,1.6,85,0.00,,,0.00,WUHU21623XXSP,2013-05-02 04:46:00,
2013-05-02 00:51:00,60.1,55.6,29.73,SE,135,0.0,0.7,85,0.00,,,0.00,WUHU21623XXSP,2013-05-02 04:51:00,
2013-05-02 00:56:00,59.9,55.7,29.73,SE,135,0.0,0.7,86,0.00,,,0.00,WUHU21623XXSP,2013-05-02 04:56:00,
2013-05-02 01:01:00,60.1,55.9,29.73,SSE,157,0.0,3.8,86,0.00,,,0.00,WUHU21623XXSP,2013-05-02 05:01:00,
2013-05-02 01:06:00,60.1,55.9,29.73,ENE,67,0.0,3.8,86,0.00,,,0.00,WUHU21623XXSP,2013-05-02 05:06:00,
2013-05-02 01:11:00,60.3,56.1,29.73,SW,225,0.0,0.0,86,0.00,,,0.00,WUHU21623XXSP,2013-05-02 05:11:00,
2013-05-02 01:16:00,60.3,56.1,29.73,SW,225,0.0,0.0,86,0.00,,,0.00,WUHU21623XXSP,2013-05-02 05:16:00,
2013-05-02 01:21:00,60.3,56.1,29.73,South,180,0.0,0.0,86,0.00,,,0.00,WUHU21623XXSP,2013-05-02 05:21:00,
2013-05-02 01:26:00,60.1,55.9,29.73,ESE,112,0.0,3.4,86,0.00,,,0.00,WUHU21623XXSP,2013-05-02 05:26:00,
2013-05-02 01:31:00,60.1,55.9,29.72,SSE,157,0.0,3.4,86,0.00,,,0.00,WUHU21623XXSP,2013-05-02 05:31:00,
2013-05-02 01:36:00,60.1,55.9,29.72,ESE,112,0.0,2.5,86,0.00,,,0.00,WUHU21623XXSP,2013-05-02 05:36:00,
2013-05-02 01:41:00,60.1,55.9,29.72,SE,135,0.0,2.5,86,0.00,,,0.00,WUHU21623XXSP,2013-05-02 05:41:00,
2013-05-02 01:46:00,60.1,55.9,29.72,ENE,67,0.0,0.0,86,0.00,,,0.00,WUHU21623XXSP,2013-05-02 05:46:00,
2013-05-02 01:51:00,60.1,55.9,29.71,WSW,247,0.0,1.6,86,0.00,,,0.00,WUHU21623XXSP,2013-05-02 05:51:00,
2013-05-02 01:56:00,60.1,55.9,29.71,SE,135,0.0,4.5,86,0.00,,,0.00,WUHU21623XXSP,2013-05-02 05:56:00,
2013-05-02 02:01:00,60.1,56.2,29.71,ESE,112,0.0,4.5,87,0.00,,,0.00,WUHU21623XXSP,2013-05-02 06:01:00,
2013-05-02 02:06:00,60.1,56.2,29.71,East,90,0.0,2.9,87,0.00,,,0.00,WUHU21623XXSP,2013-05-02 06:06:00,
2013-05-02 02:11:00,60.3,56.4,29.71,ESE,112,0.0,2.9,87,0.00,,,0.00,WUHU21623XXSP,2013-05-02 06:11:00,
2013-05-02 02:16:00,60.3,56.4,29.71,ESE,112,0.0,4.3,87,0.00,,,0.00,WUHU21623XXSP,2013-05-02 06:16:00,
2013-05-02 02:21:00,60.4,56.6,29.71,SSE,157,0.0,4.3,87,0.00,,,0.00,WUHU21623XXSP,2013-05-02 06:21:00,
2013-05-02 02:26:00,60.4,56.6,29.70,ESE,112,0.0,3.4,87,0.00,,,0.00,WUHU21623XXSP,2013-05-02 06:26:00,
2013-05-02 02:31:00,60.4,56.6,29.70,South,180,0.0,3.4,87,0.00,,,0.00,WUHU21623XXSP,2013-05-02 06:31:00,
2013-05-02 02:36:00,60.4,56.6,29.70,West,270,0.0,2.9,87,0.00,,,0.00,WUHU21623XXSP,2013-05-02 06:36:00,
2013-05-02 02:41:00,60.4,56.6,29.70,ENE,67,0.0,2.9,87,0.00,,,0.00,WUHU21623XXSP,2013-05-02 06:41:00,
2013-05-02 02:46:00,60.4,56.6,29.70,South,180,0.0,1.8,87,0.00,,,0.00,WUHU21623XXSP,2013-05-02 06:46:00,
2013-05-02 02:51:00,60.4,56.6,29.70,North,0,0.0,0.0,87,0.00,,,0.00,WUHU21623XXSP,2013-05-02 06:51:00,
2013-05-02 02:56:00,60.4,56.6,29.70,WSW,247,0.0,3.8,87,0.00,,,0.00,WUHU21623XXSP,2013-05-02 06:56:00,
2013-05-02 03:01:00,60.4,56.6,29.70,ESE,112,0.0,3.8,87,0.00,,,0.00,WUHU21623XXSP,2013-05-02 07:01:00,
2013-05-02 03:06:00,60.6,56.8,29.70,SSW,202,0.0,3.4,87,0.00,,,0.00,WUHU21623XXSP,2013-05-02 07:06:00,
2013-05-02 03:11:00,60.6,56.8,29.70,SSW,202,0.0,3.4,87,0.00,,,0.00,WUHU21623XXSP,2013-05-02 07:11:00,
2013-05-02 03:16:00,60.6,56.8,29.70,East,90,0.0,5.1,87,0.00,,,0.00,WUHU21623XXSP,2013-05-02 07:16:00,
2013-05-02 03:21:00,60.6,56.8,29.70,West,270,0.0,5.1,87,0.00,,,0.00,WUHU21623XXSP,2013-05-02 07:21:00,
2013-05-02 03:26:00,60.6,56.8,29.70,West,270,0.0,3.6,87,0.00,,,0.00,WUHU21623XXSP,2013-05-02 07:26:00,
2013-05-02 03:31:00,60.6,56.8,29.70,ESE,112,0.0,3.8,87,0.00,,,0.00,WUHU21623XXSP,2013-05-02 07:31:00,
2013-05-02 03:36:00,60.6,56.8,29.70,East,90,0.0,3.8,87,0.00,,,0.00,WUHU21623XXSP,2013-05-02 07:36:00,
2013-05-02 03:41:00,60.6,57.1,29.70,SSW,202,0.0,6.7,88,0.00,,,0.00,WUHU21623XXSP,2013-05-02 07:41:00,
2013-05-02 03:46:00,60.6,57.1,29.70,North,0,0.0,6.7,88,0.00,,,0.00,WUHU21623XXSP,2013-05-02 07:46:00,
2013-05-02 03:51:00,60.6,57.1,29.70,SE,135,0.0,1.6,88,0.00,,,0.00,WUHU21623XXSP,2013-05-02 07:51:00,
2013-05-02 03:56:00,60.6,57.1,29.70,SSE,157,0.0,0.0,88,0.00,,,0.00,WUHU21623XXSP,2013-05-02 07:56:00,
2013-05-02 04:01:00,60.6,57.1,29.70,NW,315,1.1,3.4,88,0.00,,,0.00,WUHU21623XXSP,2013-05-02 08:01:00,
2013-05-02 04:06:00,60.8,57.3,29.70,ESE,112,0.0,3.4,88,0.00,,,0.00,WUHU21623XXSP,2013-05-02 08:06:00,
2013-05-02 04:11:00,60.8,57.3,29.70,North,0,0.0,2.2,88,0.00,,,0.00,WUHU21623XXSP,2013-05-02 08:11:00,
2013-05-02 04:16:00,60.8,57.3,29.70,ESE,112,0.0,4.5,88,0.00,,,0.00,WUHU21623XXSP,2013-05-02 08:16:00,
2013-05-02 04:21:00,60.8,57.3,29.69,South,180,0.0,4.5,88,0.00,,,0.00,WUHU21623XXSP,2013-05-02 08:21:00,
2013-05-02 04:26:00,60.8,57.3,29.69,SSE,157,0.0,0.0,88,0.00,,,0.00,WUHU21623XXSP,2013-05-02 08:26:00,
2013-05-02 04:31:00,60.6,57.1,29.69,WNW,292,0.0,4.3,88,0.00,,,0.00,WUHU21623XXSP,2013-05-02 08:31:00,
2013-05-02 04:36:00,60.8,57.3,29.69,WNW,292,0.0,4.3,88,0.00,,,0.00,WUHU21623XXSP,2013-05-02 08:36:00,
2013-05-02 04:41:00,60.6,57.1,29.69,ESE,112,0.0,5.4,88,0.00,,,0.00,WUHU21623XXSP,2013-05-02 08:41:00,
2013-05-02 04:46:00,60.8,57.3,29.69,SE,135,0.0,5.4,88,0.00,,,0.00,WUHU21623XXSP,2013-05-02 08:46:00,
2013-05-02 04:51:00,60.8,57.3,29.69,ESE,112,0.0,4.7,88,0.00,,,0.00,WUHU21623XXSP,2013-05-02 08:51:00,
2013-05-02 04:56:00,61.0,57.4,29.68,SSE,157,0.0,6.0,88,0.00,,,0.00,WUHU21623XXSP,2013-05-02 08:56:00,
2013-05-02 05:01:00,61.0,57.4,29.68,SSE,157,0.0,6.0,88,0.00,,,0.00,WUHU21623XXSP,2013-05-02 09:01:00,
2013-05-02 05:06:00,61.0,57.4,29.68,SSE,157,0.0,0.9,88,0.00,,,0.00,WUHU21623XXSP,2013-05-02 09:06:00,
2013-05-02 05:11:00,61.0,57.4,29.68,SSW,202,3.6,3.6,88,0.00,,,0.00,WUHU21623XXSP,2013-05-02 09:11:00,
2013-05-02 05:16:00,61.0,57.4,29.68,SE,135,0.0,5.4,88,0.00,,,0.00,WUHU21623XXSP,2013-05-02 09:16:00,
2013-05-02 05:21:00,61.0,57.4,29.68,NW,315,0.0,5.4,88,0.00,,,0.00,WUHU21623XXSP,2013-05-02 09:21:00,
2013-05-02 05:26:00,61.0,57.4,29.68,WSW,247,0.0,4.0,88,0.00,,,0.00,WUHU21623XXSP,2013-05-02 09:26:00,
2013-05-02 05:31:00,61.0,57.4,29.68,South,180,0.0,2.7,88,0.00,,,0.00,WUHU21623XXSP,2013-05-02 09:31:00,
2013-05-02 05:36:00,61.0,57.4,29.68,NNW,337,0.0,2.7,88,0.00,,,0.00,WUHU21623XXSP,2013-05-02 09:36:00,
2013-05-02 05:41:00,61.0,57.4,29.68,SE,135,0.0,1.8,88,0.00,,,0.00,WUHU21623XXSP,2013-05-02 09:41:00,
2013-05-02 05:46:00,61.0,57.4,29.68,North,0,0.0,3.1,88,0.00,,,0.00,WUHU21623XXSP,2013-05-02 09:46:00,
2013-05-02 05:51:00,61.0,57.4,29.68,WSW,247,0.0,4.7,88,0.00,,,0.00,WUHU21623XXSP,2013-05-02 09:51:00,
2013-05-02 05:56:00,61.0,57.4,29.68,SE,135,6.5,6.5,88,0.00,,,0.00,WUHU21623XXSP,2013-05-02 09:56:00,
2013-05-02 06:01:00,61.0,57.4,29.68,SW,225,0.0,6.5,88,0.00,,,0.00,WUHU21623XXSP,2013-05-02 10:01:00,
2013-05-02 06:06:00,61.0,57.4,29.68,SSW,202,0.0,6.5,88,0.00,,,0.00,WUHU21623XXSP,2013-05-02 10:06:00,
2013-05-02 06:11:00,61.0,57.4,29.68,SSW,202,0.0,0.0,88,0.00,,,0.00,WUHU21623XXSP,2013-05-02 10:11:00,
2013-05-02 06:16:00,61.0,57.4,29.69,NNE,22,0.0,2.5,88,0.00,,,0.00,WUHU21623XXSP,2013-05-02 10:16:00,
2013-05-02 06:21:00,61.0,57.8,29.69,SSE,157,0.0,4.0,89,0.00,,,0.00,WUHU21623XXSP,2013-05-02 10:21:00,
2013-05-02 06:26:00,61.0,57.8,29.69,WSW,247,0.0,4.7,89,0.00,,,0.00,WUHU21623XXSP,2013-05-02 10:26:00,
2013-05-02 06:31:00,60.8,57.6,29.69,SE,135,2.7,4.7,89,0.00,,,0.00,WUHU21623XXSP,2013-05-02 10:31:00,
2013-05-02 06:36:00,60.8,57.6,29.69,South,180,0.0,2.7,89,0.00,,,0.00,WUHU21623XXSP,2013-05-02 10:36:00,
2013-05-02 06:41:00,60.8,57.6,29.69,ENE,67,0.0,0.0,89,0.00,,,0.00,WUHU21623XXSP,2013-05-02 10:41:00,
2013-05-02 06:46:00,60.8,57.6,29.70,South,180,0.0,2.2,89,0.00,,,0.00,WUHU21623XXSP,2013-05-02 10:46:00,
2013-05-02 06:51:00,60.8,57.6,29.69,SSE,157,0.0,2.2,89,0.00,,,0.00,WUHU21623XXSP,2013-05-02 10:51:00,
2013-05-02 06:56:00,60.6,57.4,29.70,South,180,0.0,0.7,89,0.00,,,0.00,WUHU21623XXSP,2013-05-02 10:56:00,
2013-05-02 07:01:00,60.6,57.4,29.70,SE,135,0.0,2.9,89,0.00,,,0.00,WUHU21623XXSP,2013-05-02 11:01:00,
2013-05-02 07:06:00,60.8,57.6,29.70,North,0,0.0,2.9,89,0.00,,,0.00,WUHU21623XXSP,2013-05-02 11:06:00,
2013-05-02 07:11:00,61.0,57.8,29.70,SE,135,0.0,0.0,89,0.00,,,0.00,WUHU21623XXSP,2013-05-02 11:11:00,
2013-05-02 07:16:00,61.0,57.8,29.70,ENE,67,0.0,0.0,89,0.00,,,0.00,WUHU21623XXSP,2013-05-02 11:16:00,
2013-05-02 07:21:00,61.0,57.8,29.70,NNW,337,0.0,0.0,89,0.00,,,0.00,WUHU21623XXSP,2013-05-02 11:21:00,
2013-05-02 07:26:00,61.0,58.1,29.70,SSW,202,0.0,1.8,90,0.00,,,0.00,WUHU21623XXSP,2013-05-02 11:26:00,
2013-05-02 07:31:00,61.0,58.1,29.70,SW,225,0.0,1.8,90,0.00,,,0.00,WUHU21623XXSP,2013-05-02 11:31:00,
2013-05-02 07:36:00,61.0,58.1,29.70,ESE,112,0.0,0.0,90,0.00,,,0.00,WUHU21623XXSP,2013-05-02 11:36:00,
2013-05-02 07:41:00,61.0,58.1,29.70,SE,135,0.0,0.0,90,0.00,,,0.00,WUHU21623XXSP,2013-05-02 11:41:00,
2013-05-02 07:46:00,61.0,58.1,29.71,SSE,157,0.0,1.1,90,0.00,,,0.00,WUHU21623XXSP,2013-05-02 11:46:00,
2013-05-02 07:51:00,61.0,58.1,29.71,SSW,202,0.0,1.1,90,0.00,,,0.00,WUHU21623XXSP,2013-05-02 11:51:00,
2013-05-02 07:56:00,61.0,58.1,29.71,WNW,292,0.0,0.0,90,0.00,,,0.00,WUHU21623XXSP,2013-05-02 11:56:00,
2013-05-02 08:01:00,61.0,58.1,29.71,SE,135,0.0,2.7,90,0.00,,,0.00,WUHU21623XXSP,2013-05-02 12:01:00,
2013-05-02 08:06:00,61.0,58.1,29.71,ESE,112,0.0,2.7,90,0.00,,,0.00,WUHU21623XXSP,2013-05-02 12:06:00,
2013-05-02 08:11:00,61.2,58.3,29.71,SSE,157,0.0,0.0,90,0.00,,,0.00,WUHU21623XXSP,2013-05-02 12:11:00,
2013-05-02 08:16:00,61.2,58.3,29.71,SSE,157,0.0,6.5,90,0.00,,,0.00,WUHU21623XXSP,2013-05-02 12:16:00,
2013-05-02 08:21:00,61.3,58.5,29.72,South,180,0.0,6.5,90,0.00,,,0.00,WUHU21623XXSP,2013-05-02 12:21:00,
2013-05-02 08:26:00,61.3,58.5,29.72,South,180,0.0,0.9,90,0.00,,,0.00,WUHU21623XXSP,2013-05-02 12:26:00,
2013-05-02 08:31:00,61.3,58.5,29.72,SSE,157,0.0,2.9,90,0.00,,,0.00,WUHU21623XXSP,2013-05-02 12:31:00,
2013-05-02 08:36:00,61.5,58.6,29.72,SSW,202,0.7,2.9,90,0.00,,,0.00,WUHU21623XXSP,2013-05-02 12:36:00,
2013-05-02 08:41:00,61.5,58.6,29.72,ESE,112,0.0,6.5,90,0.00,,,0.00,WUHU21623XXSP,2013-05-02 12:41:00,
2013-05-02 08:46:00,61.7,58.8,29.72,ENE,67,0.0,6.5,90,0.00,,,0.00,WUHU21623XXSP,2013-05-02 12:46:00,
2013-05-02 08:51:00,61.9,59.0,29.72,ESE,112,0.0,3.8,90,0.00,,,0.00,WUHU21623XXSP,2013-05-02 12:51:00,
2013-05-02 08:57:00,62.1,59.2,29.72,SSE,157,0.0,2.7,90,0.00,,,0.00,WUHU21623XXSP,2013-05-02 12:57:00,
2013-05-02 09:01:00,62.2,59.4,29.72,SSE,157,0.0,1.8,90,0.00,,,0.00,WUHU21623XXSP,2013-05-02 13:01:00,
2013-05-02 09:06:00,62.4,59.5,29.73,ENE,67,0.0,1.8,90,0.00,,,0.00,WUHU21623XXSP,2013-05-02 13:06:00,
2013-05-02 09:11:00,62.4,59.2,29.72,SSE,157,0.0,1.8,89,0.00,,,0.00,WUHU21623XXSP,2013-05-02 13:11:00,
2013-05-02 09:16:00,63.3,60.1,29.72,ENE,67,0.0,4.3,89,0.00,,,0.00,WUHU21623XXSP,2013-05-02 13:16:00,
2013-05-02 09:21:00,64.0,60.8,29.72,South,180,0.9,4.3,89,0.00,,,0.00,WUHU21623XXSP,2013-05-02 13:21:00,
2013-05-02 09:27:00,64.0,60.1,29.72,SW,225,0.0,5.6,87,0.00,,,0.00,WUHU21623XXSP,2013-05-02 13:27:00,
2013-05-02 09:32:00,64.0,60.1,29.72,South,180,0.0,5.6,87,0.00,,,0.00,WUHU21623XXSP,2013-05-02 13:32:00,
2013-05-02 09:37:00,64.0,59.8,29.73,SSE,157,0.0,1.6,86,0.00,,,0.00,WUHU21623XXSP,2013-05-02 13:37:00,
2013-05-02 09:42:00,64.0,59.8,29.72,SE,135,0.0,1.1,86,0.00,,,0.00,WUHU21623XXSP,2013-05-02 13:42:00,
2013-05-02 09:47:00,64.0,59.8,29.72,ESE,112,3.6,6.5,86,0.00,,,0.00,WUHU21623XXSP,2013-05-02 13:47:00,
2013-05-02 09:52:00,64.0,59.8,29.72,SE,135,0.0,6.5,86,0.00,,,0.00,WUHU21623XXSP,2013-05-02 13:52:00,
2013-05-02 09:57:00,64.2,60.0,29.72,WSW,247,0.0,2.5,86,0.00,,,0.00,WUHU21623XXSP,2013-05-02 13:57:00,
2013-05-02 10:02:00,64.9,60.3,29.72,SE,135,0.0,1.6,85,0.00,,,0.00,WUHU21623XXSP,2013-05-02 14:02:00,
2013-05-02 10:07:00,65.3,60.7,29.72,SSE,157,0.0,3.4,85,0.00,,,0.00,WUHU21623XXSP,2013-05-02 14:07:00,
2013-05-02 10:12:00,65.8,60.8,29.72,SE,135,0.0,5.6,84,0.00,,,0.00,WUHU21623XXSP,2013-05-02 14:12:00,
2013-05-02 10:17:00,65.8,60.5,29.72,SE,135,0.0,5.6,83,0.00,,,0.00,WUHU21623XXSP,2013-05-02 14:17:00,
2013-05-02 10:22:00,65.8,60.5,29.72,SSE,157,0.0,4.3,83,0.00,,,0.00,WUHU21623XXSP,2013-05-02 14:22:00,
2013-05-02 10:27:00,65.8,60.5,29.72,ESE,112,5.6,5.6,83,0.00,,,0.00,WUHU21623XXSP,2013-05-02 14:27:00,
2013-05-02 10:32:00,66.0,60.4,29.72,ESE,112,0.0,5.6,82,0.00,,,0.00,WUHU21623XXSP,2013-05-02 14:32:00,
2013-05-02 10:37:00,66.2,60.5,29.72,SSE,157,0.0,3.4,82,0.00,,,0.00,WUHU21623XXSP,2013-05-02 14:37:00,
2013-05-02 10:42:00,66.4,60.4,29.72,ESE,112,0.0,8.7,81,0.00,,,0.00,WUHU21623XXSP,2013-05-02 14:42:00,
2013-05-02 10:47:00,66.4,60.4,29.72,East,90,0.0,8.7,81,0.00,,,0.00,WUHU21623XXSP,2013-05-02 14:47:00,
2013-05-02 10:52:00,66.6,60.6,29.72,ESE,112,2.0,2.0,81,0.00,,,0.00,WUHU21623XXSP,2013-05-02 14:52:00,
2013-05-02 10:57:00,66.7,60.4,29.72,ESE,112,0.0,5.6,80,0.00,,,0.00,WUHU21623XXSP,2013-05-02 14:57:00,
2013-05-02 11:02:00,66.6,60.3,29.73,North,0,0.0,5.6,80,0.00,,,0.00,WUHU21623XXSP,2013-05-02 15:02:00,
2013-05-02 11:07:00,67.1,60.8,29.73,West,270,0.0,2.7,80,0.00,,,0.00,WUHU21623XXSP,2013-05-02 15:07:00,
2013-05-02 11:12:00,67.3,61.0,29.73,NW,315,0.0,3.6,80,0.00,,,0.00,WUHU21623XXSP,2013-05-02 15:12:00,
2013-05-02 11:17:00,68.0,61.3,29.73,WSW,247,0.7,3.6,79,0.00,,,0.00,WUHU21623XXSP,2013-05-02 15:17:00,
2013-05-02 11:22:00,68.5,61.4,29.73,NW,315,0.0,5.1,78,0.00,,,0.00,WUHU21623XXSP,2013-05-02 15:22:00,
2013-05-02 11:27:00,69.4,61.9,29.73,NNW,337,0.0,5.1,77,0.00,,,0.00,WUHU21623XXSP,2013-05-02 15:27:00,
2013-05-02 11:32:00,70.2,61.8,29.73,ENE,67,0.0,1.6,75,0.00,,,0.00,WUHU21623XXSP,2013-05-02 15:32:00,
2013-05-02 11:37:00,70.0,61.6,29.73,ESE,112,0.0,3.1,75,0.00,,,0.00,WUHU21623XXSP,2013-05-02 15:37:00,
2013-05-02 11:42:00,69.4,61.5,29.73,East,90,0.0,3.1,76,0.00,,,0.00,WUHU21623XXSP,2013-05-02 15:42:00,
2013-05-02 11:47:00,69.1,61.2,29.73,SE,135,0.0,5.4,76,0.00,,,0.00,WUHU21623XXSP,2013-05-02 15:47:00,
2013-05-02 11:52:00,68.5,60.7,29.73,SE,135,0.0,5.4,76,0.00,,,0.00,WUHU21623XXSP,2013-05-02 15:52:00,
2013-05-02 11:57:00,67.8,60.0,29.73,SE,135,0.0,2.7,76,0.00,,,0.00,WUHU21623XXSP,2013-05-02 15:57:00,
2013-05-02 12:02:00,67.5,60.0,29.73,SSW,202,0.0,2.7,77,0.00,,,0.00,WUHU21623XXSP,2013-05-02 16:02:00,
2013-05-02 12:07:00,67.3,59.8,29.73,SE,135,0.0,6.3,77,0.00,,,0.00,WUHU21623XXSP,2013-05-02 16:07:00,
2013-05-02 12:12:00,67.8,60.4,29.73,SE,135,0.0,6.3,77,0.00,,,0.00,WUHU21623XXSP,2013-05-02 16:12:00,
2013-05-02 12:17:00,67.8,60.0,29.73,South,180,0.0,4.5,76,0.00,,,0.00,WUHU21623XXSP,2013-05-02 16:17:00,
2013-05-02 12:22:00,67.8,60.0,29.73,SSW,202,3.4,4.5,76,0.00,,,0.00,WUHU21623XXSP,2013-05-02 16:22:00,
2013-05-02 12:27:00,67.6,59.8,29.73,East,90,0.0,4.5,76,0.00,,,0.00,WUHU21623XXSP,2013-05-02 16:27:00,
2013-05-02 12:32:00,67.6,60.2,29.73,SE,135,0.0,4.5,77,0.00,,,0.00,WUHU21623XXSP,2013-05-02 16:32:00,
2013-05-02 12:37:00,67.6,59.8,29.73,SE,135,0.0,3.4,76,0.00,,,0.00,WUHU21623XXSP,2013-05-02 16:37:00,
2013-05-02 12:42:00,68.4,60.5,29.72,SSW,202,0.0,3.8,76,0.00,,,0.00,WUHU21623XXSP,2013-05-02 16:42:00,
2013-05-02 12:47:00,68.7,60.5,29.72,ESE,112,0.0,3.8,75,0.00,,,0.00,WUHU21623XXSP,2013-05-02 16:47:00,
2013-05-02 12:52:00,69.3,60.9,29.72,South,180,0.0,3.1,75,0.00,,,0.00,WUHU21623XXSP,2013-05-02 16:52:00,
2013-05-02 12:57:00,69.8,61.1,29.72,South,180,0.0,4.7,74,0.00,,,0.00,WUHU21623XXSP,2013-05-02 16:57:00,
2013-05-02 13:02:00,70.5,61.4,29.72,SE,135,3.6,4.7,73,0.00,,,0.00,WUHU21623XXSP,2013-05-02 17:02:00,
2013-05-02 13:07:00,72.1,62.6,29.72,NW,315,0.0,3.6,72,0.00,,,0.00,WUHU21623XXSP,2013-05-02 17:07:00,
2013-05-02 13:12:00,73.8,63.0,29.72,South,180,0.0,4.9,69,0.00,,,0.00,WUHU21623XXSP,2013-05-02 17:12:00,
2013-05-02 13:17:00,74.1,62.5,29.72,SSW,202,0.0,5.4,67,0.00,,,0.00,WUHU21623XXSP,2013-05-02 17:17:00,
2013-05-02 13:22:00,73.9,61.8,29.72,South,180,0.0,10.3,66,0.00,,,0.00,WUHU21623XXSP,2013-05-02 17:22:00,
2013-05-02 13:27:00,73.8,61.7,29.72,West,270,4.7,10.3,66,0.00,,,0.00,WUHU21623XXSP,2013-05-02 17:27:00,
2013-05-02 13:32:00,73.0,61.0,29.72,NNE,22,8.3,8.3,66,0.00,,,0.00,WUHU21623XXSP,2013-05-02 17:32:00,
2013-05-02 13:37:00,72.7,61.1,29.72,SE,135,0.0,8.3,67,0.00,,,0.00,WUHU21623XXSP,2013-05-02 17:37:00,
2013-05-02 13:42:00,72.9,61.3,29.72,SSW,202,0.0,4.9,67,0.00,,,0.00,WUHU21623XXSP,2013-05-02 17:42:00,
2013-05-02 13:47:00,72.7,60.6,29.72,SE,135,0.0,6.0,66,0.00,,,0.00,WUHU21623XXSP,2013-05-02 17:47:00,
2013-05-02 13:52:00,72.0,60.4,29.72,SSE,157,0.0,7.8,67,0.00,,,0.00,WUHU21623XXSP,2013-05-02 17:52:00,
2013-05-02 13:57:00,71.8,60.6,29.72,SE,135,0.0,7.8,68,0.00,,,0.00,WUHU21623XXSP,2013-05-02 17:57:00,
2013-05-02 14:02:00,71.8,60.6,29.72,East,90,2.5,4.9,68,0.00,,,0.00,WUHU21623XXSP,2013-05-02 18:02:00,
2013-05-02 14:07:00,71.6,60.5,29.72,SSE,157,4.3,7.2,68,0.00,,,0.00,WUHU21623XXSP,2013-05-02 18:07:00,
2013-05-02 14:12:00,71.2,60.1,29.72,East,90,0.0,7.2,68,0.00,,,0.00,WUHU21623XXSP,2013-05-02 18:12:00,
2013-05-02 14:17:00,71.4,60.3,29.72,SE,135,0.0,4.7,68,0.00,,,0.00,WUHU21623XXSP,2013-05-02 18:17:00,
2013-05-02 14:22:00,71.8,60.6,29.72,South,180,0.0,5.4,68,0.00,,,0.00,WUHU21623XXSP,2013-05-02 18:22:00,
2013-05-02 14:27:00,72.3,60.7,29.71,SE,135,0.0,7.8,67,0.00,,,0.00,WUHU21623XXSP,2013-05-02 18:27:00,
2013-05-02 14:32:00,72.7,61.1,29.72,ESE,112,3.1,7.8,67,0.00,,,0.00,WUHU21623XXSP,2013-05-02 18:32:00,
2013-05-02 14:37:00,72.1,60.6,29.72,SE,135,0.0,3.1,67,0.00,,,0.00,WUHU21623XXSP,2013-05-02 18:37:00,
2013-05-02 14:42:00,71.4,60.3,29.71,SE,135,0.0,7.2,68,0.00,,,0.00,WUHU21623XXSP,2013-05-02 18:42:00,
2013-05-02 14:47:00,71.2,60.1,29.72,South,180,0.0,7.2,68,0.00,,,0.00,WUHU21623XXSP,2013-05-02 18:47:00,
2013-05-02 14:52:00,71.1,60.4,29.72,NNE,22,0.0,6.7,69,0.00,,,0.00,WUHU21623XXSP,2013-05-02 18:52:00,
2013-05-02 14:57:00,71.4,60.7,29.71,ESE,112,2.5,6.0,69,0.00,,,0.00,WUHU21623XXSP,2013-05-02 18:57:00,
2013-05-02 15:02:00,71.4,60.3,29.71,SW,225,0.0,6.0,68,0.00,,,0.00,WUHU21623XXSP,2013-05-02 19:02:00,
2013-05-02 15:07:00,70.3,60.1,29.71,WNW,292,0.0,7.6,70,0.00,,,0.00,WUHU21623XXSP,2013-05-02 19:07:00,
2013-05-02 15:12:00,69.1,59.3,29.71,East,90,0.0,7.6,71,0.00,,,0.00,WUHU21623XXSP,2013-05-02 19:12:00,
2013-05-02 15:17:00,67.8,58.9,29.71,SSE,157,0.7,6.9,73,0.00,,,0.00,WUHU21623XXSP,2013-05-02 19:17:00,
2013-05-02 15:23:00,66.6,58.4,29.72,SSE,157,0.0,6.9,75,0.00,,,0.00,WUHU21623XXSP,2013-05-02 19:23:00,
2013-05-02 15:28:00,66.0,58.6,29.71,SE,135,2.2,8.1,77,0.00,,,0.00,WUHU21623XXSP,2013-05-02 19:28:00,
2013-05-02 15:33:00,66.0,59.0,29.71,WNW,292,0.0,8.1,78,0.00,,,0.00,WUHU21623XXSP,2013-05-02 19:33:00,
2013-05-02 15:38:00,66.7,59.7,29.71,West,270,0.0,2.9,78,0.00,,,0.00,WUHU21623XXSP,2013-05-02 19:38:00,
2013-05-02 15:43:00,67.3,59.8,29.70,SSE,157,2.7,6.7,77,0.00,,,0.00,WUHU21623XXSP,2013-05-02 19:43:00,
2013-05-02 15:48:00,67.5,59.6,29.70,West,270,0.0,6.7,76,0.00,,,0.00,WUHU21623XXSP,2013-05-02 19:48:00,
2013-05-02 15:53:00,67.8,60.0,29.70,SSE,157,0.0,4.7,76,0.00,,,0.00,WUHU21623XXSP,2013-05-02 19:53:00,
2013-05-02 15:58:00,67.8,60.0,29.70,SE,135,0.0,3.1,76,0.00,,,0.00,WUHU21623XXSP,2013-05-02 19:58:00,
2013-05-02 16:03:00,68.7,60.5,29.70,West,270,0.0,3.1,75,0.00,,,0.00,WUHU21623XXSP,2013-05-02 20:03:00,
2013-05-02 16:08:00,69.4,60.7,29.70,WSW,247,0.0,7.8,74,0.00,,,0.00,WUHU21623XXSP,2013-05-02 20:08:00,
2013-05-02 16:13:00,69.4,60.4,29.69,WNW,292,0.0,7.8,73,0.00,,,0.00,WUHU21623XXSP,2013-05-02 20:13:00,
2013-05-02 16:18:00,69.1,60.0,29.69,NNW,337,0.0,5.1,73,0.00,,,0.00,WUHU21623XXSP,2013-05-02 20:18:00,
2013-05-02 16:23:00,69.1,60.0,29.69,South,180,0.0,2.9,73,0.00,,,0.00,WUHU21623XXSP,2013-05-02 20:23:00,
2013-05-02 16:28:00,69.4,60.4,29.69,WSW,247,0.0,2.2,73,0.00,,,0.00,WUHU21623XXSP,2013-05-02 20:28:00,
2013-05-02 16:33:00,69.4,60.4,29.69,WSW,247,0.0,0.0,73,0.00,,,0.00,WUHU21623XXSP,2013-05-02 20:33:00,
2013-05-02 16:38:00,69.3,60.2,29.68,South,180,0.0,3.4,73,0.00,,,0.00,WUHU21623XXSP,2013-05-02 20:38:00,
2013-05-02 16:43:00,69.1,60.0,29.68,West,270,0.0,3.8,73,0.00,,,0.00,WUHU21623XXSP,2013-05-02 20:43:00,
2013-05-02 16:48:00,69.1,60.0,29.68,West,270,0.0,5.4,73,0.00,,,0.00,WUHU21623XXSP,2013-05-02 20:48:00,
2013-05-02 16:53:00,69.1,60.0,29.68,SE,135,0.7,7.4,73,0.00,,,0.00,WUHU21623XXSP,2013-05-02 20:53:00,
2013-05-02 16:58:00,69.6,60.5,29.67,WNW,292,0.0,7.4,73,0.00,,,0.00,WUHU21623XXSP,2013-05-02 20:58:00,
2013-05-02 17:03:00,70.3,60.8,29.67,SE,135,0.0,6.0,72,0.00,,,0.00,WUHU21623XXSP,2013-05-02 21:03:00,
2013-05-02 17:08:00,70.9,61.0,29.67,WSW,247,0.0,6.0,71,0.00,,,0.00,WUHU21623XXSP,2013-05-02 21:08:00,
2013-05-02 17:13:00,71.2,61.4,29.67,NE,45,0.0,3.8,71,0.00,,,0.00,WUHU21623XXSP,2013-05-02 21:13:00,
2013-05-02 17:18:00,72.0,61.7,29.67,SW,225,0.0,3.1,70,0.00,,,0.00,WUHU21623XXSP,2013-05-02 21:18:00,
2013-05-02 17:23:00,72.9,62.2,29.67,SE,135,0.0,6.5,69,0.00,,,0.00,WUHU21623XXSP,2013-05-02 21:23:00,
2013-05-02 17:28:00,73.6,62.4,29.67,SE,135,0.0,6.5,68,0.00,,,0.00,WUHU21623XXSP,2013-05-02 21:28:00,
2013-05-02 17:33:00,73.8,62.1,29.67,NNW,337,0.0,3.4,67,0.00,,,0.00,WUHU21623XXSP,2013-05-02 21:33:00,
2013-05-02 17:38:00,73.2,61.6,29.67,ESE,112,0.0,4.3,67,0.00,,,0.00,WUHU21623XXSP,2013-05-02 21:38:00,
2013-05-02 17:43:00,72.7,61.5,29.67,SSE,157,0.0,5.1,68,0.00,,,0.00,WUHU21623XXSP,2013-05-02 21:43:00,
2013-05-02 17:48:00,72.1,61.0,29.67,South,180,0.0,5.1,68,0.00,,,0.00,WUHU21623XXSP,2013-05-02 21:48:00,
2013-05-02 17:53:00,71.2,60.5,29.66,SSE,157,0.0,3.8,69,0.00,,,0.00,WUHU21623XXSP,2013-05-02 21:53:00,
2013-05-02 17:58:00,71.2,61.0,29.66,South,180,0.0,2.0,70,0.00,,,0.00,WUHU21623XXSP,2013-05-02 21:58:00,
2013-05-02 18:03:00,71.2,61.0,29.67,SE,135,0.0,2.0,70,0.00,,,0.00,WUHU21623XXSP,2013-05-02 22:03:00,
2013-05-02 18:08:00,71.2,61.0,29.66,West,270,0.0,4.3,70,0.00,,,0.00,WUHU21623XXSP,2013-05-02 22:08:00,
2013-05-02 18:13:00,71.4,60.3,29.66,SSE,157,0.0,4.3,68,0.00,,,0.00,WUHU21623XXSP,2013-05-02 22:13:00,
2013-05-02 18:18:00,71.4,60.3,29.66,WSW,247,4.9,4.9,68,0.00,,,0.00,WUHU21623XXSP,2013-05-02 22:18:00,
2013-05-02 18:23:00,71.8,60.2,29.66,SW,225,0.0,4.9,67,0.00,,,0.00,WUHU21623XXSP,2013-05-02 22:23:00,
2013-05-02 18:28:00,71.2,59.7,29.66,ESE,112,0.0,4.9,67,0.00,,,0.00,WUHU21623XXSP,2013-05-02 22:28:00,
2013-05-02 18:33:00,70.9,59.3,29.66,SE,135,0.0,4.3,67,0.00,,,0.00,WUHU21623XXSP,2013-05-02 22:33:00,
2013-05-02 18:38:00,70.9,59.3,29.66,East,90,0.0,6.7,67,0.00,,,0.00,WUHU21623XXSP,2013-05-02 22:38:00,
2013-05-02 18:43:00,70.9,59.8,29.66,ESE,112,2.7,6.7,68,0.00,,,0.00,WUHU21623XXSP,2013-05-02 22:43:00,
2013-05-02 18:48:00,70.9,59.8,29.66,NNW,337,0.0,3.1,68,0.00,,,0.00,WUHU21623XXSP,2013-05-02 22:48:00,
2013-05-02 18:53:00,70.7,59.6,29.66,South,180,0.0,3.4,68,0.00,,,0.00,WUHU21623XXSP,2013-05-02 22:53:00,
2013-05-02 18:58:00,70.3,59.2,29.66,NW,315,0.0,4.5,68,0.00,,,0.00,WUHU21623XXSP,2013-05-02 22:58:00,
2013-05-02 19:03:00,70.0,59.7,29.66,WSW,247,0.0,4.5,70,0.00,,,0.00,WUHU21623XXSP,2013-05-02 23:03:00,
2013-05-02 19:08:00,69.6,59.4,29.66,SSW,202,0.0,1.6,70,0.00,,,0.00,WUHU21623XXSP,2013-05-02 23:08:00,
2013-05-02 19:13:00,69.1,58.9,29.66,West,270,4.3,4.5,70,0.00,,,0.00,WUHU21623XXSP,2013-05-02 23:13:00,
2013-05-02 19:18:00,68.9,58.6,29.66,SE,135,0.0,4.5,70,0.00,,,0.00,WUHU21623XXSP,2013-05-02 23:18:00,
2013-05-02 19:23:00,68.5,58.4,29.66,SE,135,0.0,5.1,70,0.00,,,0.00,WUHU21623XXSP,2013-05-02 23:23:00,
2013-05-02 19:28:00,68.4,58.6,29.66,South,180,0.0,5.1,71,0.00,,,0.00,WUHU21623XXSP,2013-05-02 23:28:00,
2013-05-02 19:33:00,68.0,58.7,29.66,South,180,0.0,2.7,72,0.00,,,0.00,WUHU21623XXSP,2013-05-02 23:33:00,
2013-05-02 19:38:00,67.8,58.5,29.66,NNW,337,0.0,1.1,72,0.00,,,0.00,WUHU21623XXSP,2013-05-02 23:38:00,
2013-05-02 19:43:00,67.5,58.5,29.66,NNW,337,0.0,1.1,73,0.00,,,0.00,WUHU21623XXSP,2013-05-02 23:43:00,
2013-05-02 19:48:00,67.1,58.2,29.66,NE,45,0.0,0.0,73,0.00,,,0.00,WUHU21623XXSP,2013-05-02 23:48:00,
2013-05-02 19:53:00,66.9,58.4,29.66,SE,135,0.0,2.0,74,0.00,,,0.00,WUHU21623XXSP,2013-05-02 23:53:00,
2013-05-02 19:58:00,66.7,58.5,29.66,South,180,0.0,2.0,75,0.00,,,0.00,WUHU21623XXSP,2013-05-02 23:58:00,
2013-05-02 20:03:00,66.7,58.5,29.67,SSW,202,0.0,0.0,75,0.00,,,0.00,WUHU21623XXSP,2013-05-03 00:03:00,
2013-05-02 20:08:00,66.6,58.4,29.67,SSW,202,0.0,0.0,75,0.00,,,0.00,WUHU21623XXSP,2013-05-03 00:08:00,
2013-05-02 20:13:00,66.4,58.2,29.67,NE,45,0.0,0.0,75,0.00,,,0.00,WUHU21623XXSP,2013-05-03 00:13:00,
2013-05-02 20:18:00,66.0,58.2,29.67,ENE,67,0.0,0.0,76,0.00,,,0.00,WUHU21623XXSP,2013-05-03 00:18:00,
2013-05-02 20:23:00,65.8,58.4,29.67,ENE,67,0.0,0.4,77,0.00,,,0.00,WUHU21623XXSP,2013-05-03 00:23:00,
2013-05-02 20:28:00,65.5,58.1,29.67,ENE,67,0.0,0.4,77,0.00,,,0.00,WUHU21623XXSP,2013-05-03 00:28:00,
2013-05-02 20:33:00,65.3,58.3,29.67,SW,225,0.0,3.8,78,0.00,,,0.00,WUHU21623XXSP,2013-05-03 00:33:00,
2013-05-02 20:38:00,65.1,58.1,29.67,NNW,337,0.0,3.8,78,0.00,,,0.00,WUHU21623XXSP,2013-05-03 00:38:00,
2013-05-02 20:43:00,64.9,58.3,29.68,NW,315,0.0,0.0,79,0.00,,,0.00,WUHU21623XXSP,2013-05-03 00:43:00,
2013-05-02 20:48:00,64.9,58.3,29.68,SSW,202,0.0,4.3,79,0.00,,,0.00,WUHU21623XXSP,2013-05-03 00:48:00,
2013-05-02 20:53:00,64.8,58.1,29.68,SE,135,1.8,5.6,79,0.00,,,0.00,WUHU21623XXSP,2013-05-03 00:53:00,
2013-05-02 20:58:00,64.8,58.1,29.68,East,90,0.0,5.6,79,0.00,,,0.00,WUHU21623XXSP,2013-05-03 00:58:00,
2013-05-02 21:03:00,64.6,57.9,29.68,SSW,202,0.0,3.6,79,0.00,,,0.00,WUHU21623XXSP,2013-05-03 01:03:00,
2013-05-02 21:08:00,64.2,57.9,29.68,South,180,0.0,0.7,80,0.00,,,0.00,WUHU21623XXSP,2013-05-03 01:08:00,
2013-05-02 21:13:00,64.2,58.3,29.68,South,180,0.0,2.9,81,0.00,,,0.00,WUHU21623XXSP,2013-05-03 01:13:00,
2013-05-02 21:18:00,64.2,58.3,29.68,SSE,157,0.0,3.6,81,0.00,,,0.00,WUHU21623XXSP,2013-05-03 01:18:00,
2013-05-02 21:23:00,64.0,58.1,29.68,SSE,157,0.0,3.6,81,0.00,,,0.00,WUHU21623XXSP,2013-05-03 01:23:00,
2013-05-02 21:28:00,64.0,58.1,29.68,NNE,22,0.0,1.1,81,0.00,,,0.00,WUHU21623XXSP,2013-05-03 01:28:00,
2013-05-02 21:33:00,64.0,58.1,29.68,NE,45,0.0,0.0,81,0.00,,,0.00,WUHU21623XXSP,2013-05-03 01:33:00,
2013-05-02 21:38:00,64.0,58.4,29.68,SSE,157,2.5,5.6,82,0.00,,,0.00,WUHU21623XXSP,2013-05-03 01:38:00,
2013-05-02 21:43:00,63.7,58.1,29.68,SSE,157,0.0,5.6,82,0.00,,,0.00,WUHU21623XXSP,2013-05-03 01:43:00,
2013-05-02 21:48:00,63.7,58.1,29.68,South,180,0.0,5.4,82,0.00,,,0.00,WUHU21623XXSP,2013-05-03 01:48:00,
2013-05-02 21:53:00,63.7,58.1,29.68,SE,135,0.0,5.4,82,0.00,,,0.00,WUHU21623XXSP,2013-05-03 01:53:00,
2013-05-02 21:58:00,63.7,58.1,29.68,NW,315,0.0,2.2,82,0.00,,,0.00,WUHU21623XXSP,2013-05-03 01:58:00,
2013-05-02 22:03:00,63.5,57.9,29.68,East,90,0.0,3.6,82,0.00,,,0.00,WUHU21623XXSP,2013-05-03 02:03:00,
2013-05-02 22:08:00,63.3,58.0,29.68,South,180,0.0,3.6,83,0.00,,,0.00,WUHU21623XXSP,2013-05-03 02:08:00,
2013-05-02 22:13:00,63.1,57.9,29.68,ENE,67,0.0,4.9,83,0.00,,,0.00,WUHU21623XXSP,2013-05-03 02:13:00,
2013-05-02 22:18:00,63.1,58.2,29.68,South,180,0.0,4.9,84,0.00,,,0.00,WUHU21623XXSP,2013-05-03 02:18:00,
2013-05-02 22:23:00,63.1,58.2,29.68,SW,225,0.0,4.5,84,0.00,,,0.00,WUHU21623XXSP,2013-05-03 02:23:00,
2013-05-02 22:28:00,63.1,58.2,29.69,SSW,202,0.0,0.9,84,0.00,,,0.00,WUHU21623XXSP,2013-05-03 02:28:00,
2013-05-02 22:33:00,62.8,57.8,29.69,ENE,67,0.0,1.8,84,0.00,,,0.00,WUHU21623XXSP,2013-05-03 02:33:00,
2013-05-02 22:38:00,62.8,57.8,29.69,ESE,112,0.0,2.9,84,0.00,,,0.00,WUHU21623XXSP,2013-05-03 02:38:00,
2013-05-02 22:43:00,62.8,57.8,29.69,WSW,247,0.0,6.5,84,0.00,,,0.00,WUHU21623XXSP,2013-05-03 02:43:00,
2013-05-02 22:48:00,63.0,58.0,29.69,SE,135,0.0,6.5,84,0.00,,,0.00,WUHU21623XXSP,2013-05-03 02:48:00,
2013-05-02 22:53:00,63.1,58.2,29.69,ENE,67,0.0,4.3,84,0.00,,,0.00,WUHU21623XXSP,2013-05-03 02:53:00,
2013-05-02 22:58:00,63.1,58.2,29.69,East,90,0.0,4.3,84,0.00,,,0.00,WUHU21623XXSP,2013-05-03 02:58:00,
2013-05-02 23:03:00,63.1,58.2,29.69,SSE,157,0.0,3.4,84,0.00,,,0.00,WUHU21623XXSP,2013-05-03 03:03:00,
2013-05-02 23:08:00,63.1,58.2,29.68,SE,135,0.0,6.0,84,0.00,,,0.00,WUHU21623XXSP,2013-05-03 03:08:00,
2013-05-02 23:13:00,63.1,58.2,29.68,SSE,157,0.0,6.0,84,0.00,,,0.00,WUHU21623XXSP,2013-05-03 03:13:00,
2013-05-02 23:18:00,63.1,58.2,29.68,WSW,247,0.0,4.3,84,0.00,,,0.00,WUHU21623XXSP,2013-05-03 03:18:00,
2013-05-02 23:23:00,63.1,58.2,29.68,SE,135,0.0,2.7,84,0.00,,,0.00,WUHU21623XXSP,2013-05-03 03:23:00,
2013-05-02 23:28:00,63.1,58.2,29.68,East,90,0.0,2.7,84,0.00,,,0.00,WUHU21623XXSP,2013-05-03 03:28:00,
2013-05-02 23:33:00,63.0,58.0,29.67,ESE,112,0.0,3.4,84,0.00,,,0.00,WUHU21623XXSP,2013-05-03 03:33:00,
2013-05-02 23:38:00,63.0,58.0,29.67,SSE,157,0.0,3.4,84,0.00,,,0.00,WUHU21623XXSP,2013-05-03 03:38:00,
2013-05-02 23:43:00,62.8,57.8,29.67,South,180,0.0,3.1,84,0.00,,,0.00,WUHU21623XXSP,2013-05-03 03:43:00,
2013-05-02 23:48:00,62.8,57.8,29.66,SW,225,0.0,3.1,84,0.00,,,0.00,WUHU21623XXSP,2013-05-03 03:48:00,
2013-05-02 23:53:00,62.4,57.8,29.67,South,180,0.0,2.5,85,0.00,,,0.00,WUHU21623XXSP,2013-05-03 03:53:00,
2013-05-02 23:58:00,62.4,57.8,29.67,SSE,157,0.0,4.7,85,0.00,,,0.00,WUHU21623XXSP,2013-05-03 03:58:00,